Regional Weather Roundup
Issued by NWS

Home | Current Version | Previous Version | Graphics & Text | Print | Product List | Glossary On
Versions: 1 2 3 4 5 6 7 8 9 10 11 12 13 14 15 16 17 18 19 20 21 22 23 24 25 26 27 28 29 30 31 32 33 34 35 36 37 38 39 40 41 42 43 44 45 46 47 48 49 50
000
ASUS43 KBIS 031401
RWRND

NORTH DAKOTA REGIONAL WEATHER ROUNDUP
NATIONAL WEATHER SERVICE BISMARCK ND
800 AM CST TUE MAR 03 2015

NOTE: "FAIR" INDICATES FEW OR NO CLOUDS BELOW 12,000 FEET WITH NO
SIGNIFICANT WEATHER AND/OR OBSTRUCTIONS TO VISIBILITY.


NDZ001>003-009>011-017-031500-
NORTHWEST NORTH DAKOTA

CITY           SKY/WX    TMP DP  RH WIND       PRES   REMARKS
WILLISTON      CLOUDY     3  -4  72 NW13      30.10R WCI -14
MINOT          CLEAR      1  -8  66 W23       29.99R WCI -22
MINOT AFB      CLEAR     -1  -7  73 NW24      29.98R WCI -25
$$

NDZ018>021-031>035-040>046-031500-
SOUTHWEST NORTH DAKOTA

CITY           SKY/WX    TMP DP  RH WIND       PRES   REMARKS
BISMARCK       PTCLDY     7  -2  66 NW16G28   30.00R WCI -11
DICKINSON      PTCLDY     4  -6  63 NW22G29   29.98R WCI -18
GARRISON         N/A      1  -5  75 NW22      29.99R WCI -21
HETTINGER ARPT CLOUDY     7  -6  55 NW20G28   30.00R WCI -13
$$

NDZ004>008-012>016-024-026-027-054-031500-
NORTHEAST NORTH DAKOTA

CITY           SKY/WX    TMP DP  RH WIND       PRES   REMARKS
GRAND FORKS    FLURRIES  12   4  70 NW23G31   29.82R WCI  -7
GRND FRKS AFB  CLOUDY    10   3  72 NW20G30   29.82R WCI  -8
DEVILS LAKE    PTCLDY     3  -6  66 NW20G29   29.87R WCI -18
$$

NDZ022-023-025-028>030-036>039-047>053-031500-
SOUTHEAST NORTH DAKOTA

CITY           SKY/WX    TMP DP  RH WIND       PRES   REMARKS
FARGO          CLOUDY    16   9  74 NW21G30   29.80R WCI  -1
JAMESTOWN      CLOUDY     8   1  73 NW24G37   29.86R WCI -13
$$



USA.gov is the U.S. government's official web portal to all federal, state and local government web resources and services.